Retour au catalogue

COSMOS 2251 DEB

ActifLEO
NORAD 37530·DEBRIS·🇷🇺 Russia

Lancé Jun 16, 1993 depuis Plesetsk Cosmodrome

Loading…

Prochains Passages (prochaines 24 heures)

TLE

FraisSource: Space-Track

Époque: Sep 14, 2026, 02:03 UTC

1 37530U 93036BNK 26257.08559994  .00000283  00000-0  10846-3 0  9995
2 37530  74.0365 189.2409 0027128 190.1388 182.4450 14.34790175891810

Suivez COSMOS 2251 DEB en temps réel avec AllMySat

Download on the App Store